sat.trackr.live / text

‹ back to catalog

STARLINK-35460

NORAD 66328 · 2025-253K

PAYLOAD ACTIVE UNKNOWN

§ Identity

Operator
Country
US
Launch date
2025-11-06
Launch site
AFETR
Launch vehicle
Mass (kg)
RCS (m²)

Purposes: comms

External: N2YO · Heavens-Above · Gunter

§ Orbital elements

Epoch: 2026-09-20T11:47:15.509472Z

Period
94.27 min
Inclination
42.9982°
Eccentricity
0.0000804
Mean motion
15.27582380 rev/d
Perigee alt
482.5 km
Apogee alt
483.6 km
Semi-major
6,861.2 km
B*
2.7132e-4
RAAN
192.6465°
Arg perigee
266.4350°
Mean anomaly
93.6410°
Rev number
5,003

§ Raw data

STARLINK-354601 66328U 25253K   26263.49115173  .00007212  00000+0  27132-3 0  99912 66328  42.9982 192.6465 0000804 266.4350  93.6410 15.27582380 50034

JSON: /api/v1/satellites/66328 · /tle

For live sub-satellite position, see the globe view (requires WebGL).

§ Visibility from observer

Set your observer location to see the next 7 days of passes ≥ 10°. The values pass through the URL so the page stays shareable.

No JS? Fill the form by hand. The geolocation button needs JavaScript.